Lid_Strength_Index
9 8 7 6 6 6 5 4 1 1 1 1 1 1 0 1 1 1 2 2 3 3
9 9 8 7 6 5 5 3 1 1 1 1 1 1 1 1 1 2 2 2 3 3
9 8 7 7 6 5 4 3 2 1 1 1 1 1 1 1 2 2 2 2 3 3
10 9 8 7 5 4 3 2 2 3 5 5 5 4 3 4 3 3 5 5 5 7
10 9 9 8 7 6 7 6 7 7 7 7 6 6 6 7 8 8 9 8 9 9
11 11 11 10 9 8 8 9 9 9 9 9 9 8 8 9 9 9 10 10 11 11
12 12 12 11 11 10 10 10 10 10 10 10 10 9 10 10 10 10 11 11 12 12
13 12 12 12 11 11 11 11 11 11 11 11 10 10 9 9 10 10 11 12 12 12
13 13 13 12 12 11 11 11 11 11 11 12 10 10 10 10 11 12 12 13 13 13
13 13 13 12 13 13 13 12 12 12 12 12 11 10 11 11 12 12 12 13 14 13
13 13 13 13 14 14 14 14 14 13 12 12 11 11 11 12 13 13 14 13 13 13
14 14 14 14 14 15 15 15 15 14 14 14 13 11 12 12 13 14 14 13 12 12
14 15 15 15 15 15 15 15 15 15 15 15 14 12 11 11 13 13 13 13 13 12
15 15 15 15 15 15 14 14 15 15 15 14 14 13 11 11 13 13 13 13 14 13